[[{"header":{"parameterUnit":"m.s-1","parameterCategory":1,"la1":30.2991,"la2":30.254,"lo1":-89.0895,"lo2":-89.0444,"dy":0.0017,"dx":0.0017,"nx":28,"ny":28,"refTime":"2023-05-01T21:00:00:Z","depth":0,"parameterNumber":2,"parameterNumberName":"U-component_of_WINDS"},"data":[0,0,0,0,0,0,0,0,0,0,0,0,0,0,0,0,0,0,0,0,0,0,0,0,0,0,0,0,0,0,0,0,0,0,0,0,0,0,0,0,0,0,0,0,0,0,0,0,0,0,0,0,0,0,0,0,0,0,1.7748,1.775,0,1.7896,1.7897,1.7899,1.7953,1.7953,1.7952,1.7952,1.8102,1.8107,1.8111,0,0,0,0,0,0,0,0,0,0,0,0,0,1.7514,1.7518,1.7748,1.775,1.7752,1.7895,1.7897,1.7899,1.7953,1.7953,1.7952,1.7951,1.8101,1.8106,1.8111,0,0,0,0,0,0,0,0,0,0,0,0,0,1.7634,1.7519,1.7748,1.7796,1.7802,1.7895,1.7897,1.79,1.7953,1.7953,1.7952,1.7951,1.8099,1.8106,1.8112,1.8168,0,0,1.8133,1.8136,0,0,0,0,0,0,0,0,1.7627,1.7642,1.7787,1.7793,1.7799,1.7905,1.787,1.799,1.7954,1.7896,1.7952,1.7951,1.8037,1.8049,1.8078,1.8175,1.8182,1.8133,1.8137,1.814,1.8142,0,0,0,0,0,0,0,1.7618,1.7636,1.7806,1.7789,1.7797,1.781,1.7827,1.7893,1.7969,1.7901,1.7905,1.7922,1.8041,1.8072,1.8082,1.8184,1.8133,1.8139,1.8143,1.8146,1.8335,1.8336,0,0,0,0,0,0,1.7602,1.7629,1.7802,1.7811,1.771,1.7815,1.7833,1.7872,1.7968,1.7982,1.7922,1.7924,1.8061,1.8074,1.8088,1.816,1.814,1.8146,1.815,1.8334,1.8335,1.8337,0,0,0,0,0,0,1.7597,1.7617,1.7796,1.7721,1.7745,1.782,1.7863,1.7875,1.7906,1.7984,1.7998,1.794,1.8061,1.8078,1.8148,1.8166,1.8149,1.8155,1.8333,1.8335,1.8336,1.8304,0,0,0,0,0,0,1.759,1.7615,1.7636,1.7721,1.7749,1.7853,1.7864,1.7879,1.7918,1.7921,1.8005,1.8018,1.8061,1.8138,1.8155,1.8175,1.8161,1.8332,1.8334,1.8336,1.8304,1.8305,1.8305,0,0,0,0,0,1.7581,1.7621,1.7637,1.7658,1.7777,1.7854,1.787,1.7919,1.7919,1.7942,1.7992,1.8015,1.8161,1.8144,1.8164,1.8186,1.8331,1.8333,1.8335,1.8304,1.8304,1.8305,0,0,0,0,0,0,1.7536,1.7633,1.7652,1.772,1.7779,1.7863,1.7893,1.7918,1.7977,1.7978,1.8036,1.8055,1.812,1.816,1.814,1.8246,1.8248,1.8254,1.8217,1.8218,1.8219,1.8207,1.8166,0,0,0,0,0,1.7534,1.7588,1.767,1.7723,1.7751,1.7817,1.7852,1.7885,1.7948,1.7972,1.8028,1.8088,1.8147,1.8185,1.8244,1.8311,1.833,1.8336,1.8336,1.8336,1.8341,1.838,1.8383,1.8344,1.8344,1.8344,0,0,1.753,1.759,1.762,1.7715,1.7764,1.7819,1.7837,1.7894,1.7936,1.7981,1.805,1.8093,1.8164,1.8233,1.8265,1.8268,1.8356,1.8339,1.8339,1.8343,1.8383,1.8386,1.8389,1.8346,1.8345,1.8345,0,0,1.7551,1.7602,1.7652,1.7701,1.7775,1.7819,1.7831,1.7912,1.7943,1.8013,1.8049,1.8099,1.82,1.825,1.8288,1.833,1.8353,1.8347,1.8349,1.8387,1.839,1.8393,1.8408,1.8412,1.8352,1.8352,1.8352,0,1.7537,1.7621,1.7674,1.773,1.7771,1.7815,1.7866,1.7912,1.8001,1.8028,1.803,1.8159,1.821,1.8291,1.8301,1.8331,1.8346,1.8338,1.8385,1.8389,1.8392,1.8407,1.8413,1.8351,1.8351,1.8351,1.8351,0,1.76,1.7658,1.769,1.7776,1.782,1.7873,1.7934,1.7973,1.8003,1.8047,1.8119,1.8182,1.8254,1.8276,1.8306,1.8362,1.8361,1.8374,1.8376,1.8394,1.8409,1.8415,1.8349,1.8349,1.835,1.835,0,0,1.7595,1.7711,1.7722,1.7762,1.7848,1.7894,1.795,1.8021,1.8054,1.8115,1.8163,1.8248,1.826,1.8304,1.8339,1.8372,1.8402,1.8381,1.8383,1.8382,1.8468,1.8458,1.8463,1.8418,1.842,1.8421,1.8462,0,1.7628,1.7729,1.7779,1.7859,1.7913,1.7957,1.8006,1.8064,1.8107,1.816,1.8207,1.8267,1.8278,1.8305,1.8339,1.839,1.842,1.8388,1.8464,1.8466,1.8444,1.8471,1.8461,1.8496,1.8468,1.8469,1.847,0,1.7679,1.774,1.7825,1.7906,1.7931,1.7973,1.8044,1.8094,1.8161,1.819,1.8239,1.8274,1.8335,1.8334,1.8419,1.8396,1.843,1.846,1.8463,1.8471,1.8468,1.848,1.8509,1.8514,1.848,1.8479,1.8478,0,1.7666,1.777,1.7835,1.7868,1.7964,1.7993,1.8034,1.8101,1.8141,1.8203,1.823,1.8298,1.8335,1.8387,1.8439,1.8434,1.8519,1.8522,1.8545,1.8543,1.856,1.8558,1.8594,1.8583,1.8583,1.8582,1.8582,0,1.7697,1.7747,1.7831,1.787,1.7928,1.7986,1.8042,1.8086,1.8146,1.8195,1.8238,1.8283,1.835,1.8404,1.8446,1.851,1.8526,1.8551,1.8562,1.8547,1.8544,1.857,1.8568,1.8584,1.8584,1.8583,1.8583,0,1.7692,1.775,1.7824,1.7909,1.7932,1.7971,1.8044,1.8085,1.813,1.8192,1.821,1.8282,1.8347,1.8405,1.8492,1.8521,1.8586,1.8599,1.8563,1.8569,1.8588,1.8585,1.8641,1.8652,1.8633,1.8633,1.8633,0,1.7708,1.7748,1.7838,1.7874,1.7915,1.7973,1.8015,1.8073,1.8115,1.8196,1.8226,1.8296,1.8354,1.8457,1.8517,1.8584,1.8599,1.8614,1.8609,1.8594,1.8599,1.8596,1.86,1.8613,1.8613,1.8613,1.8613,0,1.7729,1.7756,1.7815,1.7884,1.7933,1.799,1.8048,1.8076,1.8145,1.819,1.8258,1.8304,1.8393,1.8461,1.8535,1.8578,1.8607,1.8615,1.8623,1.8608,1.8586,1.8598,1.8562,1.8613,1.8613,1.8613,1.8613,1.8613,1.7735,1.7773,1.7842,1.7907,1.7957,1.8011,1.8053,1.8105,1.8163,1.824,1.8272,1.8341,1.8409,1.8511,1.8554,1.861,1.8615,1.8627,1.8631,1.8633,1.863,1.8578,1.8624,1.8624,1.8624,1.8624,1.8624,0,1.7758,1.7806,1.7864,1.7945,1.7996,1.802,1.8086,1.8127,1.8188,1.8248,1.8305,1.8384,1.8451,1.8516,1.8587,1.8619,1.8634,1.8635,1.8633,1.8642,1.8622,1.8607,1.8622,1.8622,1.8622,1.8622,1.8621,1.8621,1.7776,1.7842,1.7877,1.7969,1.8016,1.8084,1.812,1.8171,1.822,1.8306,1.8361,1.8404,1.8467,1.8543,1.8605,1.8623,1.8647,1.8644,1.8665,1.8644,1.8644,1.8643,1.863,1.8649,1.8649,1.8681,1.8682,1.8682]},{"header":{"parameterUnit":"m.s-1","parameterCategory":1,"la1":30.2991,"la2":30.254,"lo1":-89.0895,"lo2":-89.0444,"dy":0.0017,"dx":0.0017,"nx":28,"ny":28,"refTime":"2023-05-01T21:00:00:Z","depth":0,"parameterNumber":3,"parameterNumberName":"V-component_of_WINDS"},"data":[0,0,0,0,0,0,0,0,0,0,0,0,0,0,0,0,0,0,0,0,0,0,0,0,0,0,0,0,0,0,0,0,0,0,0,0,0,0,0,0,0,0,0,0,0,0,0,0,0,0,0,0,0,0,0,0,0,0,2.3786,2.3787,0,2.3889,2.389,2.3891,2.3855,2.3853,2.385,2.3848,2.3952,2.3957,2.3962,0,0,0,0,0,0,0,0,0,0,0,0,0,2.3553,2.3557,2.3786,2.3787,2.3788,2.3889,2.389,2.3892,2.3855,2.3853,2.385,2.3847,2.3951,2.3957,2.3963,0,0,0,0,0,0,0,0,0,0,0,0,0,2.3655,2.3559,2.3786,2.3782,2.3783,2.3889,2.389,2.3892,2.3856,2.3853,2.3849,2.3846,2.3949,2.3956,2.3963,2.4078,0,0,2.3986,2.3989,0,0,0,0,0,0,0,0,2.3649,2.3664,2.3782,2.3783,2.3784,2.3856,2.3846,2.3954,2.3857,2.3828,2.3848,2.3844,2.3923,2.3932,2.3959,2.4083,2.4087,2.3987,2.3991,2.3994,2.3996,0,0,0,0,0,0,0,2.3642,2.3659,2.3827,2.3783,2.3785,2.3774,2.3785,2.3867,2.3894,2.3831,2.3828,2.3841,2.3923,2.3952,2.3961,2.4089,2.3986,2.3993,2.3997,2.4,2.4306,2.431,0,0,0,0,0,0,2.3635,2.3653,2.3823,2.383,2.3707,2.3781,2.3793,2.3836,2.3893,2.3898,2.3844,2.3839,2.3941,2.3953,2.3965,2.41,2.3994,2.4001,2.4005,2.4303,2.4307,2.4311,0,0,0,0,0,0,2.363,2.3651,2.3819,2.3741,2.3762,2.3789,2.3837,2.384,2.3869,2.3903,2.3907,2.3869,2.3939,2.3954,2.4049,2.4103,2.4004,2.4011,2.4298,2.4304,2.4309,2.4372,0,0,0,0,0,0,2.3624,2.3649,2.3694,2.3742,2.3766,2.3903,2.3841,2.3844,2.3882,2.3877,2.3927,2.3933,2.3937,2.4038,2.4056,2.4111,2.4017,2.4294,2.4301,2.4307,2.4366,2.4379,2.4391,0,0,0,0,0,2.3615,2.3708,2.3697,2.3717,2.3823,2.3907,2.392,2.3924,2.3887,2.3931,2.3952,2.3931,2.4094,2.4048,2.4068,2.4126,2.429,2.4299,2.4307,2.436,2.4377,2.4391,0,0,0,0,0,0,2.3666,2.3715,2.3702,2.3814,2.3856,2.39,2.3957,2.3943,2.3996,2.3989,2.3991,2.4003,2.41,2.4122,2.407,2.4238,2.4186,2.4199,2.422,2.4236,2.4249,2.4241,2.4023,0,0,0,0,0,2.369,2.3755,2.3794,2.3888,2.391,2.393,2.3966,2.3966,2.401,2.4027,2.4055,2.4098,2.4158,2.4198,2.4256,2.4368,2.4377,2.4418,2.4431,2.4441,2.4452,2.4509,2.4527,2.4339,2.4339,2.4338,0,0,2.3741,2.3775,2.3816,2.3899,2.3932,2.3997,2.3945,2.4018,2.4065,2.4038,2.4129,2.415,2.4198,2.4301,2.4348,2.4323,2.4506,2.4452,2.446,2.4465,2.452,2.4538,2.4553,2.4344,2.4343,2.4342,0,0,2.3866,2.39,2.3981,2.4014,2.4064,2.4076,2.4095,2.4141,2.4154,2.4245,2.4225,2.4281,2.4386,2.442,2.4451,2.4585,2.4567,2.4604,2.4671,2.4727,2.4742,2.4755,2.48,2.4817,2.4614,2.4614,2.4615,0,2.3923,2.4022,2.4024,2.4097,2.4133,2.411,2.4191,2.4223,2.4289,2.4314,2.4285,2.4414,2.4444,2.4553,2.4585,2.4612,2.4632,2.4598,2.4739,2.4753,2.4765,2.4808,2.4826,2.4619,2.4618,2.4618,2.4617,0,2.4087,2.4156,2.4215,2.4279,2.4321,2.4398,2.441,2.4452,2.4446,2.4461,2.4551,2.4587,2.465,2.4675,2.4672,2.4783,2.4766,2.4738,2.4687,2.4787,2.4828,2.4844,2.4624,2.4623,2.4622,2.4621,0,0,2.425,2.4312,2.4333,2.436,2.4412,2.4465,2.4538,2.46,2.4635,2.468,2.4741,2.4829,2.4802,2.4837,2.4836,2.4886,2.4986,2.4852,2.4853,2.4874,2.5108,2.5128,2.5147,2.4974,2.4977,2.498,2.5103,0,2.4378,2.4509,2.4511,2.4631,2.4692,2.467,2.4734,2.4771,2.4786,2.4839,2.4854,2.4915,2.4878,2.4898,2.4946,2.4964,2.5033,2.4955,2.5029,2.5031,2.5017,2.5169,2.5191,2.5306,2.512,2.5122,2.5124,0,2.4546,2.4596,2.4721,2.4761,2.4787,2.4845,2.4899,2.4951,2.4992,2.4998,2.5036,2.5026,2.5099,2.5045,2.5144,2.5091,2.512,2.5133,2.5138,2.5145,2.5084,2.5179,2.5344,2.536,2.515,2.5148,2.5146,0,2.4649,2.4748,2.4835,2.4859,2.4908,2.4949,2.4971,2.5008,2.5044,2.5091,2.5114,2.5169,2.5199,2.5241,2.5245,2.5206,2.5344,2.5291,2.535,2.535,2.5381,2.5379,2.5551,2.5401,2.5401,2.5401,2.54,0,2.4792,2.4869,2.4881,2.4935,2.5019,2.502,2.5104,2.5122,2.5155,2.521,2.5194,2.5246,2.5249,2.5301,2.5305,2.5385,2.5399,2.5405,2.5405,2.5406,2.5406,2.5426,2.5418,2.5405,2.5404,2.5403,2.5403,0,2.4922,2.4934,2.5027,2.5065,2.5076,2.5137,2.5168,2.5218,2.523,2.5299,2.5315,2.5334,2.5394,2.5403,2.5474,2.5476,2.5571,2.5564,2.5558,2.5556,2.5615,2.5609,2.5806,2.5831,2.5666,2.5667,2.5668,0,2.5012,2.5071,2.5114,2.515,2.5174,2.5233,2.5268,2.527,2.5308,2.5356,2.54,2.5458,2.5506,2.5603,2.5621,2.5674,2.5667,2.5732,2.5675,2.5673,2.5666,2.5662,2.5667,2.5744,2.5745,2.5747,2.5748,0,2.517,2.5172,2.5225,2.5279,2.5322,2.5364,2.5404,2.5434,2.544,2.5483,2.5544,2.5581,2.5652,2.571,2.5762,2.5782,2.5766,2.5766,2.5782,2.5784,2.5777,2.578,2.5587,2.5761,2.576,2.5759,2.5758,2.5758,2.5282,2.5332,2.537,2.5428,2.5458,2.5495,2.5542,2.5559,2.5611,2.5669,2.5666,2.5733,2.5769,2.5837,2.5861,2.5912,2.5891,2.5915,2.5921,2.5927,2.5932,2.5769,2.5922,2.5922,2.5921,2.5921,2.5921,0,2.5438,2.546,2.5514,2.5569,2.5614,2.5594,2.5637,2.5675,2.5735,2.577,2.5816,2.5884,2.5939,2.5961,2.6014,2.605,2.6044,2.6064,2.6061,2.6066,2.5949,2.5929,2.6068,2.6068,2.6068,2.6068,2.6068,2.6068,2.5524,2.5606,2.5612,2.5708,2.573,2.5796,2.5821,2.5854,2.5881,2.5959,2.6005,2.6018,2.6047,2.6102,2.615,2.6155,2.6174,2.6198,2.6199,2.6089,2.6075,2.606,2.6041,2.6203,2.6203,2.6312,2.6313,2.6314]}]]